Wetbulb
33.21 33.85 35.03 36.60 37.85 38.10 38.10 38.31 39.55 39.90 39.32 37.75 37.96 37.73 37.61 38.00 38.20 38.74 39.28 39.20 39.63 40.01 40.35 40.58 40.82 40.89 40.63 39.75 39.55 39.39 39.35 39.36 39.27 39.98 40.82 41.14 40.46 39.95 39.67 39.59 39.51 39.31 39.18 39.30 39.30 39.50 39.58 39.61 39.86 40.38 40.86 41.10 40.86 40.38 40.01 40.26 39.43 39.38 39.54 39.39 40.11 39.68 39.10 39.15 39.27 38.99 38.56 38.15 38.74
33.16 33.53 34.80 37.75 39.24 38.78 37.93 37.89 38.78 39.20 38.93 37.77 38.16 37.69 37.36 38.11 38.39 38.82 39.13 38.97 39.78 40.17 40.36 40.78 40.56 40.26 39.95 39.67 39.83 39.71 39.55 39.59 39.35 39.75 40.22 40.14 39.79 39.47 39.35 39.55 39.39 39.39 39.31 39.34 39.10 39.54 39.90 39.66 39.74 40.18 40.66 40.97 40.66 40.30 40.14 40.58 39.65 39.44 39.22 38.60 39.45 39.65 39.64 39.72 39.70 39.33 38.90 38.70 38.55
32.94 33.11 33.52 34.07 34.19 34.93 35.90 36.93 37.26 36.65 36.00 36.54 37.45 37.60 37.63 38.23 38.70 39.20 39.55 39.79 39.55 39.55 39.83 40.44 40.56 39.99 39.43 39.67 39.83 39.87 39.79 39.83 39.75 39.83 39.91 40.02 39.83 39.66 39.59 39.83 39.38 39.50 39.86 40.14 39.74 39.74 39.90 39.58 39.90 40.50 40.94 41.05 40.46 40.30 40.22 39.94 39.97 39.93 39.68 39.01 39.76 40.25 40.54 40.82 40.48 40.09 40.03 40.70 39.76
32.37 32.57 32.92 33.32 33.27 33.38 34.30 36.48 36.42 36.11 36.29 37.66 37.08 36.97 37.29 38.30 39.01 39.44 39.55 39.51 38.87 39.08 39.67 40.10 40.33 40.29 40.29 40.38 40.10 39.98 40.22 40.90 40.78 40.42 40.18 40.14 39.94 39.70 39.50 39.38 39.21 39.13 39.14 39.26 39.10 39.06 39.02 38.80 39.58 40.22 40.38 40.02 39.54 39.62 40.06 40.62 40.06 40.01 40.14 40.05 40.38 40.42 40.50 40.94 40.90 41.10 41.34 41.46 40.93
32.67 33.04 33.48 33.96 33.68 33.98 34.36 34.52 35.18 35.84 36.61 37.47 37.93 38.31 38.47 38.74 39.24 39.32 39.36 39.79 39.90 40.06 40.02 39.55 39.98 40.62 40.94 40.69 40.06 39.78 39.78 40.06 41.38 41.22 40.38 39.86 39.66 39.42 39.26 38.81 38.81 38.85 38.90 38.90 38.57 38.57 38.53 37.98 39.22 39.82 39.94 39.74 40.06 40.26 40.26 40.10 39.65 39.61 39.97 40.62 40.66 40.62 40.53 40.61 40.93 41.21 41.41 41.69 41.51
33.41 33.47 33.48 33.80 33.60 33.90 34.45 34.96 34.79 35.50 36.46 37.27 37.10 37.49 38.31 39.24 39.63 39.55 39.44 39.51 39.55 39.43 39.35 39.94 40.81 41.27 41.20 40.26 39.86 39.62 39.55 39.35 39.90 39.74 39.34 38.95 39.07 38.94 38.61 38.36 38.16 38.28 38.41 38.45 38.15 37.99 37.99 37.79 39.02 39.78 40.10 40.34 40.26 40.18 39.90 39.36 39.48 39.52 39.56 39.92 40.29 40.45 40.45 40.15 40.64 40.88 41.08 41.11 40.93
33.52 33.60 33.64 33.85 33.69 34.41 35.12 35.01 35.39 35.65 35.99 36.63 36.43 36.83 37.56 38.31 38.47 38.38 38.34 38.77 39.16 39.32 39.91 41.24 40.85 40.58 40.10 39.43 39.27 39.19 39.19 39.23 39.19 38.78 38.54 38.70 38.62 38.45 38.28 38.24 37.87 37.69 37.65 37.73 37.56 37.61 37.74 37.74 38.78 39.66 40.50 41.17 41.05 40.14 39.32 39.18 39.13 39.09 39.09 39.13 39.92 40.16 40.11 39.72 40.27 40.64 40.55 40.04 39.85
33.20 33.64 34.06 34.33 34.27 34.46 34.63 34.54 35.18 35.60 36.16 37.50 37.53 37.28 37.10 37.34 37.38 37.57 37.92 38.44 38.84 39.32 39.90 40.67 39.40 38.79 38.59 38.63 38.60 38.61 38.57 38.44 38.60 38.47 38.31 38.38 37.95 37.66 37.45 37.24 37.20 37.07 37.06 37.20 37.19 37.32 37.64 38.10 38.97 39.42 39.66 40.10 40.42 40.06 39.48 38.68 38.42 38.45 38.46 38.50 39.38 39.87 40.08 39.99 40.03 40.15 40.06 39.50 39.26
33.31 33.69 34.07 34.17 34.22 34.48 34.70 34.73 34.72 35.25 36.08 36.91 36.98 36.89 36.88 37.39 37.54 37.74 38.03 38.52 39.32 39.71 39.71 39.59 38.85 38.37 38.08 37.92 38.02 38.11 38.30 38.38 38.30 38.29 38.20 37.98 37.64 37.56 37.56 37.56 37.35 37.39 37.52 37.67 37.50 37.27 37.34 38.30 39.05 39.45 39.73 40.10 40.18 40.14 39.78 38.86 38.52 38.31 38.39 38.76 39.13 39.50 39.66 39.81 39.60 39.47 39.46 39.20 38.97
33.54 33.74 34.03 34.45 34.38 34.95 35.43 35.06 35.30 35.31 35.47 36.26 36.45 36.62 37.42 39.42 39.14 38.54 38.36 39.13 39.63 39.40 38.81 38.54 38.31 38.08 37.84 37.68 37.88 38.12 38.31 38.51 38.47 38.38 38.34 38.49 38.56 38.32 38.20 38.37 38.00 38.00 38.19 38.23 38.42 38.11 37.98 38.55 38.96 39.16 39.32 39.68 39.48 39.45 39.41 39.20 38.82 38.57 38.65 39.39 39.55 39.42 39.20 39.39 39.29 39.23 39.31 39.37 38.91
33.57 33.81 34.23 35.07 35.01 35.70 36.15 35.29 36.06 36.55 36.79 37.06 36.93 36.97 37.40 38.51 38.07 38.04 38.41 39.09 38.77 38.22 37.83 38.08 38.00 37.89 37.82 38.05 38.32 38.55 38.74 38.86 38.90 38.74 38.62 38.54 38.73 38.49 38.29 38.29 38.17 38.08 38.16 38.43 38.70 38.81 38.92 39.04 38.86 38.61 38.61 39.02 39.06 38.98 38.90 38.81 38.48 38.26 38.30 38.85 38.92 38.80 38.63 38.78 39.19 39.35 39.50 39.42 38.92
34.06 34.31 34.57 35.25 35.47 35.64 35.64 35.42 36.60 37.16 37.36 37.28 37.23 37.23 37.24 37.36 37.22 37.82 38.38 38.09 37.70 37.75 37.93 38.20 38.17 38.09 38.17 38.55 38.59 38.97 39.12 38.82 38.63 38.58 38.50 38.42 38.30 38.22 38.17 38.13 38.12 38.11 38.15 38.31 38.70 39.06 39.21 39.04 38.78 38.44 38.22 38.25 38.81 39.07 38.94 38.55 38.25 37.95 37.87 38.04 38.13 38.21 38.22 38.35 38.76 39.24 39.60 39.59 39.18
34.34 34.78 35.21 35.72 35.74 35.56 35.54 35.99 36.86 37.34 37.49 37.45 37.44 37.61 37.88 38.08 38.15 38.38 38.38 37.62 37.75 38.12 38.55 38.62 38.59 38.51 38.47 38.55 38.59 38.66 38.66 38.59 38.43 38.43 38.42 38.30 38.34 38.17 38.09 38.08 38.19 38.15 38.19 38.54 38.86 39.06 39.12 38.91 38.61 38.35 38.20 38.16 38.72 39.01 39.05 38.54 38.20 38.02 37.82 37.73 37.69 37.78 37.86 38.08 38.33 38.69 39.00 39.13 39.02
34.13 34.70 35.31 35.76 35.65 35.85 36.29 36.58 37.26 37.70 37.77 37.45 37.57 37.93 38.20 38.32 38.82 39.05 38.82 38.04 37.93 38.13 38.32 38.55 38.85 39.00 38.93 38.59 38.47 38.32 38.28 38.32 38.16 38.03 37.98 38.10 38.17 38.05 37.96 38.08 38.15 38.22 38.46 38.94 39.10 39.00 38.82 38.81 38.71 38.53 38.35 38.22 38.48 38.65 38.78 38.57 38.32 38.19 38.01 37.80 37.68 37.68 37.80 38.02 38.23 38.42 38.53 38.64 38.66
34.22 34.76 35.34 35.66 35.56 36.06 36.66 36.58 37.42 37.81 37.81 37.61 37.96 38.20 38.43 38.66 39.16 39.35 39.05 38.13 37.90 38.09 38.25 38.28 38.47 38.81 38.85 38.59 38.28 38.16 38.00 38.04 37.87 37.67 37.62 37.77 37.88 37.88 37.91 38.11 38.26 38.41 38.73 39.01 39.28 39.19 39.05 38.87 38.78 38.73 38.56 38.47 38.47 38.59 38.77 38.90 38.94 39.02 38.97 39.00 38.88 38.88 38.88 38.92 39.07 39.27 39.42 39.45 39.35
34.47 35.00 35.29 35.31 35.51 35.97 36.38 36.49 37.42 37.81 37.89 37.97 38.12 38.24 38.36 38.51 38.82 38.93 38.78 38.20 38.13 38.21 38.17 37.83 37.87 38.05 38.28 38.63 38.47 38.23 37.95 37.87 37.70 37.61 37.52 37.60 37.71 37.86 38.06 38.21 38.45 38.64 38.87 38.99 39.19 39.38 39.46 39.36 39.32 39.10 38.93 38.77 38.76 38.83 39.02 39.18 39.37 39.48 39.60 39.76 39.81 39.84 39.84 39.96 40.22 40.35 40.48 40.55 40.48
34.68 34.96 35.07 35.05 35.21 35.47 35.87 36.21 37.02 37.46 37.69 37.73 37.69 37.77 37.93 38.13 38.28 38.51 38.70 38.59 38.21 37.86 37.56 37.28 37.55 37.66 37.85 38.26 38.46 38.38 38.10 37.86 37.85 37.80 37.75 37.83 37.94 38.09 38.28 38.48 38.75 38.99 39.10 39.13 39.20 39.32 39.39 39.43 39.56 39.48 39.39 39.30 39.22 39.16 39.15 39.23 39.34 39.36 39.44 39.52 39.66 39.69 39.87 40.40 40.63 40.73 40.81 40.94 40.98
34.71 34.91 35.03 35.05 35.09 35.25 35.62 35.99 36.56 36.88 37.04 37.09 37.21 37.42 37.58 37.70 37.59 37.71 38.01 38.17 37.74 37.24 36.99 36.95 37.33 37.48 37.51 37.49 37.81 38.20 38.36 38.11 37.95 37.98 38.10 38.14 38.25 38.40 38.55 38.75 39.15 39.38 39.46 39.57 39.61 39.60 39.68 39.68 39.77 39.81 39.85 39.89 39.80 39.68 39.73 39.73 39.85 39.93 39.82 39.94 39.94 39.97 40.01 40.37 40.49 40.61 40.69 40.78 40.86
34.71 34.87 35.01 34.97 35.21 35.45 35.85 36.40 36.61 36.66 36.67 36.69 36.90 36.99 37.04 36.96 36.81 36.89 37.05 37.16 37.38 37.21 36.84 36.83 37.10 37.33 37.36 37.34 37.42 38.06 38.62 38.38 38.13 38.05 38.24 38.44 38.60 38.71 38.86 39.02 39.42 39.71 39.91 40.11 40.15 40.18 40.18 40.23 40.23 40.24 40.28 40.31 40.27 40.31 40.42 40.45 40.68 40.75 40.73 40.79 40.82 40.72 40.66 40.57 40.57 40.61 40.55 40.50 40.54
34.62 34.81 35.05 35.26 35.49 35.61 35.84 36.16 36.21 36.25 36.27 36.45 36.34 36.34 36.32 36.48 36.52 36.52 36.43 36.62 37.16 37.22 36.96 36.77 36.88 37.07 37.15 37.22 37.26 37.59 38.11 38.57 38.28 38.28 38.40 38.72 38.84 38.99 39.23 39.51 39.91 40.16 40.40 40.57 40.65 40.64 40.68 40.68 40.65 40.61 40.61 40.56 40.56 40.51 40.54 40.58 40.64 40.81 40.97 41.10 41.26 41.23 41.09 40.93 40.86 40.80 40.65 40.50 40.27
34.69 34.93 35.21 35.45 35.39 35.42 35.50 35.78 35.79 35.76 35.77 35.84 35.80 35.81 36.02 36.27 36.34 36.29 36.39 36.77 37.11 37.09 36.94 36.79 36.82 36.77 36.93 37.02 37.10 37.23 37.69 38.64 38.56 38.56 38.63 38.96 39.19 39.48 39.80 40.25 40.49 40.65 40.73 40.77 40.89 40.93 40.85 40.76 40.76 40.72 40.59 40.54 40.44 40.21 40.11 40.09 40.09 40.13 40.33 40.61 40.88 40.95 40.99 41.10 41.07 41.09 40.98 40.78 40.64
34.88 35.00 35.19 35.38 35.20 35.31 35.58 35.64 35.53 35.43 35.41 35.51 35.68 35.80 35.96 36.08 36.18 36.40 36.62 36.96 37.06 37.03 36.93 36.82 36.78 36.86 36.94 37.03 37.08 37.34 37.77 38.55 38.63 38.75 39.04 39.32 39.68 40.09 40.53 40.90 40.85 40.81 40.76 40.71 40.79 40.83 40.79 40.80 40.71 40.71 40.61 40.55 40.40 40.30 40.20 40.23 40.14 40.05 39.98 40.15 40.41 40.67 40.93 41.13 41.26 41.32 41.26 41.20 41.14
34.95 34.93 34.99 35.23 35.01 35.47 35.87 35.61 35.23 35.13 35.16 35.45 35.65 35.73 35.88 36.02 36.20 36.46 36.64 36.86 37.08 37.03 36.93 36.93 37.10 37.14 37.19 37.33 37.49 37.62 37.83 38.16 38.45 38.82 39.22 39.55 39.88 40.25 40.65 40.89 40.93 40.80 40.75 40.83 40.90 40.85 40.81 40.73 40.85 40.97 40.96 40.94 40.92 40.78 40.64 40.60 40.78 40.75 40.62 40.45 40.57 40.60 40.78 40.97 41.24 41.36 41.47 41.45 41.49
34.69 34.75 35.04 35.65 34.69 34.43 34.49 34.60 34.73 34.83 35.09 35.29 35.45 35.60 35.73 35.90 36.16 36.34 36.52 36.59 36.70 36.70 36.83 37.15 37.36 37.48 37.52 37.70 37.91 38.07 38.19 38.26 38.43 38.79 39.21 39.87 40.16 40.40 40.64 40.93 40.96 40.91 40.99 41.16 41.77 42.18 42.30 42.08 41.82 41.88 42.07 42.27 42.18 42.13 42.08 41.92 41.90 41.81 41.58 41.47 41.42 41.33 41.37 41.34 41.34 41.44 41.47 41.46 41.63
34.12 34.21 34.32 34.33 33.98 33.95 34.14 34.40 34.58 34.79 34.96 35.20 35.39 35.60 35.68 35.89 36.04 36.31 36.39 36.42 36.50 36.63 36.77 36.95 37.17 37.52 37.86 38.24 38.53 38.73 38.85 39.01 39.16 39.27 39.51 39.84 40.09 40.30 40.50 40.75 40.87 41.04 41.41 41.99 44.20 45.43 45.82 45.35 44.54 44.05 43.72 43.74 43.69 43.60 43.59 43.51 43.33 43.11 42.93 42.81 42.76 42.71 42.71 42.62 42.49 42.23 42.02 41.80 41.89
33.53 33.39 33.38 33.27 33.59 33.86 34.02 34.28 34.49 34.66 34.86 35.13 35.25 35.42 35.63 35.78 36.15 36.23 36.25 36.25 36.43 36.57 36.83 36.97 37.20 38.12 38.88 39.14 39.18 39.34 39.54 39.79 39.94 39.96 39.86 39.76 39.85 40.05 40.35 40.77 41.03 41.16 41.73 43.36 45.35 46.56 47.13 47.44 47.22 46.54 45.70 45.02 44.75 44.57 44.43 44.38 44.34 44.16 44.03 43.85 43.80 43.71 43.62 43.66 43.62 43.44 43.19 43.04 42.69
32.85 32.85 33.05 33.48 33.65 33.79 33.98 34.29 34.49 34.68 34.77 35.02 35.14 35.29 35.53 35.90 36.16 36.19 36.10 36.14 36.36 36.63 36.95 37.22 37.66 38.91 39.99 39.84 39.63 39.63 39.79 39.98 40.09 40.12 39.98 39.92 39.95 39.98 40.18 40.66 41.01 41.35 42.22 44.46 46.22 47.22 47.79 48.28 48.54 48.33 47.69 46.45 45.87 45.46 45.15 45.01 44.97 44.88 44.83 44.60 44.47 44.24 43.97 43.84 43.94 44.04 44.01 43.71 43.27
32.38 32.68 33.10 33.47 33.53 33.76 34.02 34.27 34.36 34.46 34.63 34.89 35.07 35.40 35.74 35.91 35.89 35.97 36.06 36.28 36.47 36.79 37.21 37.83 38.72 39.55 40.08 39.95 39.66 39.57 39.60 39.67 39.90 40.06 40.21 40.20 40.22 40.28 40.39 40.74 41.01 41.90 43.47 45.88 47.01 47.76 48.37 48.95 49.34 49.48 49.18 48.18 46.94 46.23 45.87 45.55 45.37 45.28 45.15 45.01 44.65 44.29 44.06 44.02 44.12 44.09 44.01 43.80 43.49
32.32 32.72 33.03 33.27 33.40 33.62 33.83 34.09 34.14 34.40 34.68 35.00 35.26 35.51 35.80 35.96 36.07 36.11 36.20 36.38 36.57 36.96 37.59 38.48 39.43 39.71 39.66 39.48 39.47 39.46 39.52 39.58 39.96 40.29 40.45 40.43 40.39 40.55 40.80 41.13 41.43 42.76 44.66 46.93 47.59 48.11 48.64 49.21 49.65 49.96 50.01 49.53 47.97 46.99 46.36 45.95 45.64 45.32 45.15 45.10 44.61 44.20 44.02 43.94 43.99 44.04 43.95 43.95 43.50
32.58 32.96 33.12 33.12 33.25 33.49 33.77 34.01 34.25 34.53 34.91 35.38 35.58 35.81 35.92 36.17 36.29 36.39 36.48 36.55 36.75 37.39 38.27 39.00 39.24 39.15 39.04 39.03 39.31 39.50 39.61 39.84 40.30 40.55 40.62 40.55 40.65 40.90 41.28 41.96 42.01 42.96 44.66 46.98 47.72 48.34 48.87 49.31 49.75 50.10 50.27 50.00 48.80 47.70 46.85 46.36 46.04 45.59 45.28 45.24 45.06 44.92 44.83 44.70 44.66 44.48 44.16 43.84 43.25
32.79 32.94 33.06 33.05 33.20 33.40 33.70 34.05 34.38 34.77 35.15 35.70 35.85 36.06 36.22 36.39 36.39 36.55 36.73 37.12 37.53 38.34 39.01 39.17 38.77 38.54 38.60 38.88 39.34 39.58 39.85 40.22 40.51 40.75 40.78 40.76 41.39 41.71 41.74 41.86 42.05 43.03 44.74 47.02 47.77 48.43 49.00 49.49 49.88 50.10 50.22 50.17 49.29 48.24 47.39 46.85 46.45 45.95 45.64 45.45 45.37 45.32 45.19 45.05 44.74 44.33 43.83 43.24 42.75
32.76 32.88 32.91 32.93 33.12 33.39 33.83 34.19 34.62 35.10 35.51 35.86 36.08 36.37 36.68 36.71 36.74 36.96 37.39 37.90 38.26 38.46 38.52 38.44 38.34 38.31 38.56 38.88 39.38 39.75 40.13 40.42 40.71 41.04 41.29 41.54 41.61 41.64 41.76 42.02 42.17 43.19 44.91 47.11 47.91 48.66 49.18 49.62 49.93 50.14 50.17 50.24 49.55 48.68 47.80 47.08 46.54 46.22 45.91 45.64 45.45 45.23 45.14 45.00 44.73 44.19 43.51 42.79 42.57
32.74 32.77 32.87 32.89 33.15 33.53 34.03 34.49 35.05 35.63 36.08 36.37 36.63 36.83 37.01 37.00 36.99 37.20 37.64 38.19 38.42 38.39 38.40 38.49 38.60 38.73 38.91 39.22 39.57 39.89 40.26 40.75 41.11 41.63 42.15 42.23 41.95 41.84 41.92 42.23 42.29 43.59 45.49 47.33 48.21 48.83 49.36 49.76 50.01 50.13 50.20 50.27 49.50 48.64 47.80 46.99 46.45 45.82 45.37 45.18 45.14 45.10 44.92 44.65 44.46 43.88 43.29 42.62 42.53
32.76 32.83 32.86 32.98 33.40 33.84 34.49 35.16 35.78 36.34 36.75 37.00 36.94 36.90 36.85 36.85 36.82 36.99 37.41 38.20 38.64 38.87 38.97 39.11 39.25 39.40 39.54 39.82 40.00 40.18 40.65 41.32 41.41 41.46 41.49 41.64 41.75 41.82 41.90 41.99 42.17 43.95 46.15 47.68 48.48 49.10 49.50 49.94 50.20 50.27 50.29 50.23 49.33 48.20 47.17 46.00 45.59 45.10 44.60 44.24 44.02 44.06 44.20 44.34 44.16 43.75 43.39 42.94 42.71
32.82 32.82 32.95 33.15 33.84 34.68 35.49 36.20 36.69 37.04 37.09 36.90 36.48 36.20 36.09 36.32 36.63 36.92 37.61 38.65 39.27 39.33 39.27 39.54 39.73 39.93 40.05 40.25 40.35 40.54 40.79 41.11 41.11 41.20 41.37 41.60 41.75 41.82 41.91 42.00 42.32 44.20 46.50 48.03 48.70 49.32 49.86 50.26 50.47 50.54 50.35 49.88 48.81 47.62 46.40 45.19 44.92 44.65 44.28 43.61 43.16 43.12 43.31 43.49 43.66 43.61 43.34 42.94 42.43
32.88 32.92 33.05 33.70 34.84 35.90 36.62 37.10 37.11 36.90 36.58 36.12 35.85 35.70 35.64 35.88 36.57 37.29 38.26 39.46 39.60 39.38 39.26 39.51 39.72 39.84 39.95 40.06 40.33 40.71 41.13 40.99 41.12 41.30 41.54 41.85 41.78 41.67 41.57 41.70 42.06 43.98 46.37 48.21 49.05 49.73 50.27 50.62 50.74 50.68 50.28 49.29 47.93 46.90 46.00 45.27 45.09 44.60 43.74 42.65 42.20 41.94 41.95 42.31 42.58 42.49 42.30 42.12 41.62
33.09 33.31 33.86 34.92 35.98 36.69 37.05 37.07 36.69 36.20 35.77 35.43 35.52 35.49 35.58 35.92 36.60 37.49 38.64 39.73 39.36 39.16 39.12 39.30 39.38 39.54 39.71 39.93 40.24 40.80 41.23 41.51 41.47 41.49 41.65 41.95 41.78 41.58 41.51 41.75 42.15 43.80 46.10 48.30 49.41 50.13 50.58 50.75 50.64 50.32 49.58 48.28 46.94 45.95 45.14 44.78 44.55 43.92 43.10 42.56 42.11 41.62 41.41 41.86 41.54 41.35 41.26 41.30 41.44
33.44 34.12 35.08 36.11 36.69 36.92 36.83 36.45 35.93 35.49 35.11 35.00 35.33 35.69 36.16 36.74 37.27 38.06 39.03 40.05 39.36 38.98 38.85 39.01 39.17 39.53 39.89 40.30 40.68 41.08 41.40 41.62 41.80 41.63 41.53 41.48 41.53 41.69 41.93 42.33 42.95 44.33 46.10 48.35 49.46 50.09 50.40 50.44 50.19 49.82 48.96 47.57 46.23 45.14 44.33 44.06 43.29 42.66 42.48 42.57 42.44 42.31 42.31 42.44 42.11 42.07 42.11 42.39 43.71
34.34 35.43 36.46 36.92 36.90 36.65 36.19 35.57 35.12 35.04 35.05 35.19 35.77 36.25 36.84 37.48 38.02 38.82 39.59 40.06 39.42 39.04 38.97 39.01 39.35 39.81 40.37 41.17 41.24 41.25 41.27 41.38 41.52 41.61 41.46 41.22 41.72 42.62 43.43 43.44 43.92 44.90 46.41 48.27 49.25 49.74 50.00 49.95 49.66 49.47 48.86 47.74 46.14 44.74 43.65 43.02 42.03 41.62 41.58 41.76 42.03 42.44 42.85 42.97 42.79 42.74 42.84 43.21 45.29
35.78 36.77 37.21 37.03 36.61 36.07 35.43 34.87 34.92 35.15 35.53 35.88 36.27 36.86 37.42 38.00 38.73 39.38 39.77 39.71 39.34 39.25 39.26 39.43 39.78 40.29 40.89 41.79 41.41 41.01 40.80 40.79 40.90 41.14 41.51 41.83 42.59 44.01 45.05 44.30 44.28 44.94 46.19 47.92 48.80 49.33 49.64 49.78 49.58 49.43 48.96 47.79 45.96 44.38 43.02 42.07 41.53 41.35 41.49 41.62 41.80 42.12 42.48 42.75 42.83 42.88 42.75 42.62 44.30
36.91 37.27 37.14 36.68 36.05 35.45 34.93 34.65 35.05 35.47 35.96 36.44 36.86 37.51 38.33 39.08 39.19 39.22 39.15 39.07 39.13 39.37 39.67 39.94 40.22 40.47 40.98 41.57 41.15 40.70 40.27 40.28 40.62 41.01 41.60 42.44 42.97 44.05 44.79 44.12 44.19 44.75 45.74 47.12 48.22 48.97 49.46 49.64 49.64 49.58 49.18 48.10 46.36 44.69 43.42 42.75 42.20 41.93 41.80 41.72 41.76 41.89 42.11 42.38 42.56 42.65 42.57 42.30 42.62
MSLP
1021.60 1021.52 1021.40 1021.36 1021.24 1021.12 1021.00 1020.84 1020.72 1020.60 1020.52 1020.40 1020.28 1020.16 1020.08 1019.92 1019.84 1019.64 1019.52 1019.36 1019.24 1019.08 1018.88 1018.72 1018.56 1018.40 1018.24 1018.12 1018.08 1017.96 1017.84 1017.72 1017.64 1017.52 1017.36 1017.28 1017.20 1017.08 1016.96 1016.88 1016.76 1016.64 1016.56 1016.44 1016.36 1016.28 1016.20 1016.16 1016.08 1016.00 1015.88 1015.80 1015.68 1015.64 1015.52 1015.48 1015.44 1015.36 1015.28 1015.24 1015.16 1015.08 1015.04 1015.00 1014.92 1014.84 1014.80 1014.72 1014.64
1021.48 1021.36 1021.32 1021.24 1021.08 1020.92 1020.84 1020.76 1020.60 1020.48 1020.36 1020.24 1020.16 1020.08 1019.92 1019.80 1019.68 1019.52 1019.36 1019.20 1019.08 1018.92 1018.72 1018.52 1018.36 1018.24 1018.12 1018.00 1017.88 1017.80 1017.68 1017.52 1017.44 1017.32 1017.20 1017.08 1016.96 1016.84 1016.76 1016.64 1016.52 1016.44 1016.36 1016.24 1016.20 1016.08 1016.00 1015.92 1015.88 1015.80 1015.64 1015.52 1015.48 1015.36 1015.28 1015.24 1015.24 1015.16 1015.08 1015.04 1015.00 1014.92 1014.84 1014.80 1014.68 1014.64 1014.56 1014.48 1014.40
1021.40 1021.32 1021.24 1021.16 1021.04 1020.92 1020.80 1020.68 1020.52 1020.36 1020.24 1020.12 1020.00 1019.88 1019.80 1019.64 1019.52 1019.36 1019.20 1019.00 1018.84 1018.72 1018.60 1018.44 1018.24 1018.08 1018.00 1017.84 1017.68 1017.60 1017.52 1017.36 1017.24 1017.08 1017.00 1016.88 1016.76 1016.64 1016.52 1016.40 1016.32 1016.20 1016.12 1016.04 1015.96 1015.88 1015.80 1015.72 1015.64 1015.56 1015.48 1015.32 1015.24 1015.16 1015.08 1015.00 1014.96 1014.92 1014.88 1014.80 1014.76 1014.68 1014.60 1014.52 1014.40 1014.36 1014.32 1014.20 1014.16
1021.32 1021.24 1021.12 1021.04 1020.92 1020.84 1020.76 1020.56 1020.36 1020.24 1020.08 1019.96 1019.84 1019.76 1019.64 1019.52 1019.36 1019.16 1019.00 1018.80 1018.68 1018.56 1018.44 1018.28 1018.08 1017.92 1017.80 1017.64 1017.52 1017.36 1017.28 1017.16 1017.08 1016.92 1016.80 1016.68 1016.52 1016.44 1016.36 1016.20 1016.12 1016.04 1015.92 1015.84 1015.80 1015.68 1015.60 1015.52 1015.48 1015.36 1015.24 1015.12 1015.04 1014.96 1014.92 1014.80 1014.72 1014.68 1014.64 1014.52 1014.48 1014.44 1014.36 1014.28 1014.20 1014.12 1014.08 1014.00 1013.92
1021.20 1021.08 1020.92 1020.84 1020.80 1020.64 1020.52 1020.40 1020.28 1020.12 1019.96 1019.80 1019.72 1019.56 1019.40 1019.28 1019.12 1018.96 1018.84 1018.64 1018.52 1018.36 1018.20 1018.08 1017.92 1017.76 1017.60 1017.44 1017.36 1017.24 1017.08 1017.00 1016.88 1016.76 1016.64 1016.48 1016.36 1016.20 1016.12 1016.00 1015.92 1015.84 1015.76 1015.64 1015.60 1015.48 1015.40 1015.36 1015.28 1015.16 1015.04 1014.92 1014.80 1014.68 1014.64 1014.56 1014.52 1014.44 1014.36 1014.32 1014.24 1014.20 1014.20 1014.08 1014.00 1013.92 1013.88 1013.80 1013.72
1021.04 1020.92 1020.80 1020.68 1020.60 1020.48 1020.36 1020.20 1020.12 1019.96 1019.84 1019.68 1019.60 1019.44 1019.32 1019.12 1018.96 1018.80 1018.68 1018.52 1018.36 1018.20 1018.08 1017.92 1017.80 1017.60 1017.44 1017.32 1017.24 1017.08 1016.96 1016.84 1016.72 1016.60 1016.48 1016.32 1016.20 1016.08 1015.92 1015.80 1015.76 1015.64 1015.56 1015.48 1015.40 1015.36 1015.28 1015.24 1015.12 1014.96 1014.84 1014.68 1014.56 1014.44 1014.36 1014.32 1014.32 1014.24 1014.16 1014.08 1014.08 1014.00 1013.92 1013.88 1013.80 1013.76 1013.64 1013.60 1013.52
1020.92 1020.80 1020.72 1020.56 1020.48 1020.36 1020.20 1020.08 1019.92 1019.80 1019.68 1019.56 1019.48 1019.36 1019.16 1018.96 1018.80 1018.72 1018.56 1018.40 1018.20 1018.08 1017.92 1017.72 1017.56 1017.44 1017.32 1017.20 1017.08 1016.96 1016.80 1016.64 1016.52 1016.40 1016.28 1016.12 1015.96 1015.88 1015.80 1015.68 1015.56 1015.52 1015.44 1015.36 1015.24 1015.16 1015.12 1015.08 1014.92 1014.76 1014.60 1014.48 1014.32 1014.20 1014.16 1014.16 1014.12 1014.08 1013.96 1013.92 1013.80 1013.76 1013.76 1013.68 1013.60 1013.52 1013.48 1013.40 1013.36
1020.80 1020.72 1020.60 1020.48 1020.36 1020.20 1020.08 1019.92 1019.80 1019.72 1019.60 1019.44 1019.32 1019.16 1019.00 1018.84 1018.68 1018.52 1018.36 1018.24 1018.08 1017.92 1017.76 1017.56 1017.44 1017.36 1017.24 1017.08 1016.92 1016.80 1016.64 1016.52 1016.32 1016.20 1016.08 1015.96 1015.84 1015.72 1015.64 1015.52 1015.44 1015.36 1015.24 1015.20 1015.08 1015.00 1014.92 1014.84 1014.72 1014.56 1014.40 1014.32 1014.16 1014.04 1013.92 1013.92 1013.88 1013.84 1013.80 1013.68 1013.60 1013.52 1013.48 1013.44 1013.36 1013.32 1013.24 1013.20 1013.08
1020.72 1020.60 1020.44 1020.36 1020.20 1020.08 1019.92 1019.80 1019.72 1019.60 1019.48 1019.32 1019.16 1019.00 1018.84 1018.68 1018.52 1018.36 1018.20 1018.08 1017.88 1017.68 1017.56 1017.44 1017.28 1017.16 1017.04 1016.92 1016.80 1016.60 1016.44 1016.28 1016.12 1015.96 1015.84 1015.76 1015.64 1015.56 1015.44 1015.32 1015.24 1015.12 1015.04 1014.92 1014.84 1014.80 1014.68 1014.60 1014.48 1014.32 1014.20 1014.08 1013.92 1013.80 1013.72 1013.64 1013.64 1013.60 1013.52 1013.44 1013.36 1013.28 1013.24 1013.20 1013.16 1013.08 1013.08 1012.96 1012.92
1020.64 1020.48 1020.36 1020.20 1020.08 1019.92 1019.80 1019.68 1019.56 1019.44 1019.36 1019.16 1018.96 1018.80 1018.68 1018.52 1018.36 1018.20 1018.08 1017.88 1017.68 1017.52 1017.44 1017.32 1017.16 1017.00 1016.88 1016.72 1016.56 1016.40 1016.20 1016.08 1015.92 1015.80 1015.64 1015.52 1015.44 1015.36 1015.24 1015.08 1015.00 1014.92 1014.80 1014.68 1014.60 1014.52 1014.44 1014.32 1014.16 1014.04 1013.92 1013.80 1013.72 1013.60 1013.52 1013.48 1013.44 1013.32 1013.24 1013.12 1013.08 1012.96 1012.92 1012.88 1012.88 1012.88 1012.80 1012.76 1012.68
1020.52 1020.40 1020.24 1020.08 1019.92 1019.80 1019.64 1019.56 1019.40 1019.28 1019.16 1019.00 1018.80 1018.64 1018.52 1018.36 1018.20 1018.08 1017.88 1017.68 1017.56 1017.44 1017.32 1017.16 1017.00 1016.84 1016.68 1016.52 1016.36 1016.16 1016.00 1015.84 1015.68 1015.52 1015.44 1015.32 1015.20 1015.08 1015.00 1014.92 1014.80 1014.64 1014.52 1014.44 1014.36 1014.28 1014.16 1014.00 1013.88 1013.76 1013.64 1013.52 1013.48 1013.36 1013.28 1013.24 1013.16 1013.08 1012.96 1012.84 1012.80 1012.76 1012.64 1012.60 1012.60 1012.60 1012.56 1012.48 1012.40
1020.44 1020.28 1020.12 1019.96 1019.80 1019.68 1019.60 1019.48 1019.28 1019.12 1018.96 1018.80 1018.64 1018.52 1018.36 1018.20 1018.08 1017.88 1017.72 1017.56 1017.44 1017.28 1017.08 1016.92 1016.80 1016.64 1016.52 1016.28 1016.12 1015.92 1015.76 1015.64 1015.52 1015.36 1015.24 1015.08 1015.00 1014.88 1014.76 1014.64 1014.56 1014.40 1014.28 1014.20 1014.08 1014.00 1013.88 1013.72 1013.60 1013.52 1013.36 1013.24 1013.24 1013.12 1013.04 1012.92 1012.92 1012.80 1012.68 1012.56 1012.52 1012.52 1012.40 1012.32 1012.32 1012.28 1012.24 1012.20 1012.12
1020.32 1020.16 1019.96 1019.80 1019.72 1019.60 1019.48 1019.36 1019.16 1018.96 1018.80 1018.64 1018.52 1018.36 1018.20 1018.00 1017.84 1017.72 1017.56 1017.44 1017.24 1017.08 1016.88 1016.68 1016.56 1016.44 1016.28 1016.08 1015.92 1015.76 1015.60 1015.44 1015.32 1015.16 1015.04 1014.88 1014.76 1014.64 1014.52 1014.40 1014.28 1014.16 1014.00 1013.88 1013.80 1013.72 1013.60 1013.48 1013.36 1013.24 1013.12 1013.00 1012.92 1012.80 1012.76 1012.68 1012.64 1012.52 1012.40 1012.32 1012.24 1012.16 1012.08 1012.04 1011.96 1011.96 1011.92 1011.92 1011.80
1020.20 1020.08 1019.88 1019.72 1019.60 1019.52 1019.36 1019.24 1019.04 1018.84 1018.68 1018.52 1018.36 1018.20 1018.00 1017.80 1017.64 1017.52 1017.40 1017.24 1017.08 1016.92 1016.68 1016.52 1016.36 1016.20 1016.08 1015.88 1015.72 1015.56 1015.44 1015.28 1015.12 1014.96 1014.80 1014.68 1014.52 1014.40 1014.24 1014.16 1014.04 1013.92 1013.76 1013.60 1013.52 1013.40 1013.32 1013.20 1013.04 1012.92 1012.84 1012.72 1012.64 1012.52 1012.48 1012.40 1012.36 1012.24 1012.16 1012.04 1011.92 1011.88 1011.80 1011.72 1011.64 1011.64 1011.64 1011.60 1011.52
1020.08 1019.92 1019.80 1019.64 1019.52 1019.40 1019.28 1019.12 1018.92 1018.76 1018.56 1018.40 1018.20 1018.04 1017.88 1017.68 1017.52 1017.36 1017.24 1017.08 1016.92 1016.72 1016.52 1016.36 1016.16 1016.00 1015.84 1015.72 1015.56 1015.40 1015.28 1015.12 1014.92 1014.80 1014.60 1014.44 1014.32 1014.16 1014.04 1013.88 1013.76 1013.64 1013.52 1013.36 1013.24 1013.12 1013.04 1012.88 1012.80 1012.64 1012.52 1012.44 1012.36 1012.24 1012.16 1012.12 1012.04 1011.92 1011.80 1011.72 1011.64 1011.52 1011.44 1011.36 1011.32 1011.32 1011.28 1011.24 1011.24
1019.96 1019.80 1019.68 1019.60 1019.44 1019.28 1019.16 1019.04 1018.80 1018.64 1018.44 1018.24 1018.08 1017.92 1017.76 1017.56 1017.36 1017.24 1017.08 1016.92 1016.72 1016.52 1016.36 1016.20 1016.00 1015.84 1015.64 1015.52 1015.44 1015.28 1015.08 1014.92 1014.76 1014.56 1014.36 1014.20 1014.04 1013.92 1013.76 1013.64 1013.48 1013.36 1013.24 1013.08 1012.92 1012.80 1012.72 1012.56 1012.48 1012.36 1012.24 1012.12 1012.00 1011.92 1011.84 1011.80 1011.68 1011.60 1011.48 1011.36 1011.28 1011.20 1011.12 1011.04 1011.00 1010.96 1010.96 1010.92 1010.92
1019.88 1019.72 1019.60 1019.52 1019.36 1019.20 1019.04 1018.88 1018.72 1018.52 1018.36 1018.12 1017.96 1017.80 1017.64 1017.48 1017.28 1017.12 1016.96 1016.80 1016.60 1016.40 1016.20 1016.08 1015.92 1015.72 1015.52 1015.36 1015.24 1015.12 1014.92 1014.68 1014.52 1014.36 1014.16 1013.96 1013.80 1013.64 1013.52 1013.36 1013.20 1013.08 1012.92 1012.80 1012.64 1012.52 1012.36 1012.24 1012.16 1012.08 1011.96 1011.84 1011.68 1011.60 1011.52 1011.44 1011.36 1011.28 1011.20 1011.08 1011.00 1010.92 1010.84 1010.80 1010.76 1010.72 1010.68 1010.68 1010.64
1019.80 1019.64 1019.48 1019.36 1019.24 1019.08 1018.92 1018.76 1018.60 1018.40 1018.20 1018.08 1017.84 1017.68 1017.56 1017.36 1017.20 1017.00 1016.80 1016.64 1016.52 1016.36 1016.08 1015.88 1015.76 1015.60 1015.40 1015.24 1015.08 1014.92 1014.76 1014.52 1014.32 1014.12 1013.92 1013.76 1013.56 1013.40 1013.24 1013.08 1012.92 1012.76 1012.64 1012.48 1012.32 1012.16 1012.04 1011.92 1011.80 1011.72 1011.60 1011.48 1011.36 1011.24 1011.12 1011.08 1010.96 1010.92 1010.80 1010.72 1010.64 1010.64 1010.52 1010.48 1010.44 1010.44 1010.44 1010.36 1010.32
1019.64 1019.52 1019.36 1019.24 1019.12 1018.96 1018.80 1018.60 1018.44 1018.24 1018.08 1017.92 1017.72 1017.56 1017.40 1017.24 1017.08 1016.88 1016.64 1016.48 1016.36 1016.20 1016.00 1015.72 1015.52 1015.40 1015.24 1015.08 1014.88 1014.72 1014.52 1014.32 1014.08 1013.88 1013.68 1013.52 1013.32 1013.12 1012.92 1012.80 1012.64 1012.48 1012.28 1012.16 1011.96 1011.84 1011.68 1011.56 1011.44 1011.36 1011.24 1011.08 1010.96 1010.84 1010.76 1010.64 1010.56 1010.52 1010.44 1010.36 1010.28 1010.24 1010.20 1010.16 1010.12 1010.12 1010.08 1010.04 1010.00
1019.56 1019.40 1019.24 1019.08 1018.96 1018.80 1018.64 1018.48 1018.32 1018.16 1017.96 1017.80 1017.64 1017.48 1017.28 1017.08 1016.92 1016.76 1016.56 1016.36 1016.16 1016.04 1015.88 1015.64 1015.44 1015.24 1015.08 1014.88 1014.68 1014.52 1014.32 1014.08 1013.88 1013.64 1013.40 1013.24 1013.08 1012.84 1012.64 1012.52 1012.32 1012.12 1011.92 1011.80 1011.64 1011.52 1011.36 1011.24 1011.08 1010.96 1010.84 1010.76 1010.64 1010.52 1010.44 1010.36 1010.24 1010.16 1010.08 1010.00 1009.96 1009.92 1009.84 1009.80 1009.80 1009.76 1009.72 1009.68 1009.68
1019.44 1019.28 1019.12 1018.96 1018.84 1018.68 1018.52 1018.36 1018.20 1018.08 1017.88 1017.68 1017.52 1017.36 1017.16 1016.92 1016.76 1016.60 1016.44 1016.20 1016.04 1015.88 1015.72 1015.52 1015.28 1015.08 1014.88 1014.64 1014.48 1014.24 1014.08 1013.84 1013.64 1013.40 1013.16 1012.92 1012.80 1012.56 1012.36 1012.20 1012.00 1011.80 1011.60 1011.48 1011.28 1011.16 1011.00 1010.88 1010.76 1010.64 1010.52 1010.44 1010.36 1010.24 1010.16 1010.08 1009.96 1009.92 1009.80 1009.72 1009.64 1009.56 1009.52 1009.44 1009.44 1009.36 1009.36 1009.36 1009.32
1019.28 1019.16 1019.00 1018.88 1018.76 1018.60 1018.40 1018.24 1018.12 1017.96 1017.80 1017.60 1017.36 1017.20 1017.00 1016.80 1016.64 1016.44 1016.28 1016.08 1015.92 1015.76 1015.56 1015.36 1015.12 1014.92 1014.72 1014.48 1014.24 1014.04 1013.80 1013.56 1013.36 1013.16 1012.92 1012.68 1012.48 1012.24 1012.08 1011.88 1011.72 1011.52 1011.32 1011.20 1011.00 1010.84 1010.72 1010.56 1010.44 1010.32 1010.20 1010.12 1010.00 1009.88 1009.80 1009.72 1009.64 1009.52 1009.44 1009.36 1009.24 1009.20 1009.12 1009.08 1009.04 1008.96 1008.92 1008.92 1008.84
1019.20 1019.04 1018.92 1018.76 1018.64 1018.48 1018.32 1018.16 1018.00 1017.84 1017.64 1017.44 1017.24 1017.04 1016.84 1016.64 1016.48 1016.28 1016.12 1015.96 1015.80 1015.56 1015.36 1015.16 1014.92 1014.72 1014.52 1014.28 1014.08 1013.80 1013.52 1013.28 1013.08 1012.84 1012.64 1012.48 1012.20 1011.96 1011.80 1011.60 1011.44 1011.24 1011.08 1010.92 1010.76 1010.60 1010.40 1010.24 1010.08 1009.96 1009.84 1009.76 1009.60 1009.44 1009.36 1009.24 1009.12 1009.04 1008.92 1008.84 1008.80 1008.76 1008.72 1008.64 1008.60 1008.52 1008.52 1008.44 1008.36
1019.08 1018.96 1018.80 1018.64 1018.52 1018.40 1018.24 1018.08 1017.88 1017.68 1017.48 1017.28 1017.08 1016.92 1016.72 1016.52 1016.36 1016.16 1015.96 1015.80 1015.60 1015.40 1015.20 1014.96 1014.72 1014.52 1014.28 1014.04 1013.80 1013.52 1013.28 1013.00 1012.76 1012.52 1012.32 1012.12 1011.92 1011.72 1011.52 1011.36 1011.16 1011.00 1010.80 1010.64 1010.48 1010.28 1010.08 1009.88 1009.68 1009.52 1009.40 1009.32 1009.16 1009.00 1008.88 1008.80 1008.64 1008.52 1008.48 1008.40 1008.36 1008.24 1008.20 1008.16 1008.12 1008.08 1008.04 1007.96 1007.92
1019.00 1018.88 1018.76 1018.60 1018.48 1018.32 1018.12 1017.92 1017.76 1017.56 1017.36 1017.12 1016.96 1016.80 1016.60 1016.40 1016.20 1016.00 1015.80 1015.60 1015.40 1015.20 1014.96 1014.76 1014.52 1014.24 1014.00 1013.72 1013.44 1013.20 1012.96 1012.72 1012.52 1012.28 1012.04 1011.84 1011.64 1011.48 1011.32 1011.12 1010.92 1010.72 1010.52 1010.28 1010.04 1009.80 1009.64 1009.44 1009.24 1009.08 1008.92 1008.80 1008.68 1008.52 1008.40 1008.28 1008.20 1008.08 1007.96 1007.88 1007.80 1007.72 1007.64 1007.60 1007.60 1007.60 1007.60 1007.56 1007.56
1018.92 1018.80 1018.68 1018.56 1018.40 1018.20 1018.04 1017.84 1017.60 1017.40 1017.24 1017.00 1016.80 1016.64 1016.48 1016.24 1016.04 1015.84 1015.64 1015.40 1015.20 1014.96 1014.76 1014.52 1014.24 1014.00 1013.68 1013.40 1013.08 1012.88 1012.64 1012.48 1012.28 1012.08 1011.84 1011.64 1011.40 1011.20 1011.04 1010.88 1010.64 1010.44 1010.20 1009.96 1009.72 1009.48 1009.24 1009.04 1008.80 1008.64 1008.48 1008.32 1008.16 1008.04 1007.88 1007.76 1007.64 1007.56 1007.44 1007.36 1007.28 1007.24 1007.16 1007.08 1007.08 1007.12 1007.16 1007.16 1007.16
1018.92 1018.76 1018.60 1018.44 1018.24 1018.08 1017.88 1017.68 1017.48 1017.28 1017.08 1016.92 1016.68 1016.52 1016.32 1016.08 1015.88 1015.64 1015.44 1015.24 1014.96 1014.76 1014.52 1014.28 1014.00 1013.72 1013.40 1013.08 1012.84 1012.64 1012.44 1012.24 1012.04 1011.84 1011.64 1011.40 1011.20 1010.96 1010.76 1010.52 1010.36 1010.16 1009.92 1009.64 1009.36 1009.08 1008.84 1008.64 1008.36 1008.20 1008.00 1007.84 1007.68 1007.52 1007.36 1007.24 1007.12 1007.04 1006.96 1006.92 1006.80 1006.80 1006.76 1006.72 1006.72 1006.72 1006.72 1006.72 1006.72
1018.84 1018.68 1018.48 1018.32 1018.12 1017.92 1017.72 1017.56 1017.36 1017.16 1016.96 1016.80 1016.56 1016.36 1016.12 1015.92 1015.72 1015.52 1015.24 1015.04 1014.76 1014.52 1014.28 1014.00 1013.68 1013.40 1013.12 1012.92 1012.64 1012.44 1012.24 1012.08 1011.88 1011.64 1011.40 1011.20 1010.92 1010.72 1010.48 1010.24 1010.08 1009.84 1009.60 1009.28 1009.00 1008.72 1008.48 1008.20 1007.96 1007.72 1007.52 1007.32 1007.20 1007.08 1006.88 1006.76 1006.64 1006.56 1006.52 1006.48 1006.44 1006.40 1006.36 1006.36 1006.28 1006.28 1006.28 1006.24 1006.28
1018.72 1018.52 1018.36 1018.20 1018.00 1017.80 1017.60 1017.40 1017.24 1017.04 1016.80 1016.60 1016.36 1016.16 1015.92 1015.68 1015.52 1015.28 1015.08 1014.80 1014.52 1014.28 1014.00 1013.72 1013.44 1013.16 1012.92 1012.72 1012.52 1012.24 1012.04 1011.84 1011.64 1011.40 1011.16 1010.88 1010.64 1010.40 1010.20 1009.92 1009.72 1009.48 1009.24 1008.92 1008.64 1008.36 1008.08 1007.80 1007.56 1007.32 1007.08 1006.92 1006.80 1006.64 1006.52 1006.36 1006.24 1006.16 1006.08 1006.00 1006.08 1006.04 1005.92 1005.88 1005.84 1005.80 1005.80 1005.80 1005.84
1018.64 1018.48 1018.28 1018.08 1017.88 1017.68 1017.48 1017.28 1017.08 1016.88 1016.64 1016.40 1016.20 1015.96 1015.76 1015.52 1015.28 1015.08 1014.80 1014.56 1014.32 1014.08 1013.80 1013.52 1013.28 1013.08 1012.84 1012.60 1012.36 1012.12 1011.84 1011.60 1011.36 1011.16 1010.92 1010.64 1010.36 1010.08 1009.84 1009.64 1009.40 1009.12 1008.84 1008.56 1008.28 1008.00 1007.72 1007.44 1007.20 1006.92 1006.68 1006.52 1006.36 1006.24 1006.08 1005.96 1005.84 1005.76 1005.64 1005.60 1005.56 1005.52 1005.48 1005.40 1005.36 1005.36 1005.36 1005.44 1005.52
1018.52 1018.36 1018.20 1017.96 1017.76 1017.56 1017.36 1017.16 1016.92 1016.68 1016.48 1016.20 1015.96 1015.76 1015.52 1015.32 1015.08 1014.84 1014.60 1014.36 1014.08 1013.80 1013.52 1013.36 1013.12 1012.92 1012.64 1012.44 1012.20 1011.92 1011.64 1011.36 1011.12 1010.92 1010.64 1010.40 1010.08 1009.80 1009.52 1009.32 1009.08 1008.80 1008.52 1008.20 1007.92 1007.64 1007.32 1007.04 1006.80 1006.52 1006.28 1006.08 1005.96 1005.80 1005.68 1005.52 1005.44 1005.36 1005.32 1005.24 1005.20 1005.16 1005.16 1005.12 1005.08 1005.12 1005.20 1005.24 1005.36
1018.44 1018.24 1018.08 1017.88 1017.64 1017.44 1017.20 1016.96 1016.72 1016.52 1016.24 1016.04 1015.80 1015.56 1015.36 1015.08 1014.88 1014.64 1014.40 1014.16 1013.88 1013.60 1013.36 1013.16 1012.92 1012.68 1012.44 1012.16 1011.92 1011.68 1011.44 1011.16 1010.88 1010.64 1010.40 1010.12 1009.84 1009.52 1009.24 1008.96 1008.72 1008.48 1008.16 1007.80 1007.52 1007.24 1006.92 1006.64 1006.40 1006.16 1005.92 1005.72 1005.56 1005.40 1005.24 1005.16 1005.08 1005.04 1005.00 1004.96 1005.00 1004.96 1004.96 1004.96 1004.96 1005.00 1005.04 1005.12 1005.24
1018.32 1018.12 1017.96 1017.80 1017.52 1017.28 1017.00 1016.76 1016.52 1016.28 1016.04 1015.80 1015.60 1015.36 1015.16 1014.92 1014.64 1014.40 1014.20 1013.92 1013.68 1013.44 1013.20 1012.92 1012.72 1012.48 1012.20 1011.96 1011.68 1011.44 1011.16 1010.92 1010.64 1010.36 1010.08 1009.84 1009.60 1009.32 1009.00 1008.64 1008.36 1008.08 1007.80 1007.44 1007.12 1006.80 1006.52 1006.24 1006.00 1005.80 1005.56 1005.36 1005.20 1005.04 1004.92 1004.84 1004.80 1004.80 1004.76 1004.76 1004.76 1004.76 1004.76 1004.80 1004.80 1004.84 1004.88 1004.92 1004.92
1018.20 1018.04 1017.80 1017.60 1017.36 1017.08 1016.80 1016.56 1016.32 1016.08 1015.84 1015.60 1015.36 1015.20 1015.00 1014.80 1014.52 1014.20 1014.00 1013.76 1013.52 1013.24 1013.00 1012.80 1012.60 1012.36 1012.08 1011.80 1011.56 1011.24 1010.92 1010.64 1010.36 1010.08 1009.84 1009.60 1009.32 1009.04 1008.72 1008.36 1008.04 1007.72 1007.40 1007.08 1006.72 1006.40 1006.12 1005.88 1005.64 1005.36 1005.20 1004.96 1004.84 1004.72 1004.64 1004.56 1004.52 1004.52 1004.52 1004.56 1004.56 1004.56 1004.52 1004.56 1004.56 1004.60 1004.64 1004.64 1004.68
1018.08 1017.88 1017.64 1017.40 1017.16 1016.88 1016.56 1016.28 1016.08 1015.88 1015.64 1015.44 1015.24 1015.04 1014.84 1014.64 1014.36 1014.12 1013.84 1013.56 1013.28 1013.04 1012.80 1012.60 1012.36 1012.16 1011.92 1011.64 1011.36 1011.08 1010.80 1010.44 1010.12 1009.88 1009.64 1009.36 1009.08 1008.72 1008.36 1008.04 1007.68 1007.36 1007.08 1006.72 1006.36 1006.04 1005.72 1005.44 1005.24 1005.00 1004.80 1004.64 1004.52 1004.40 1004.36 1004.36 1004.32 1004.32 1004.36 1004.36 1004.36 1004.36 1004.32 1004.32 1004.32 1004.36 1004.36 1004.36 1004.44
1017.96 1017.80 1017.52 1017.24 1016.92 1016.64 1016.36 1016.08 1015.92 1015.72 1015.52 1015.32 1015.12 1014.92 1014.64 1014.44 1014.20 1013.92 1013.64 1013.36 1013.08 1012.84 1012.64 1012.40 1012.20 1011.96 1011.72 1011.40 1011.12 1010.84 1010.56 1010.24 1009.96 1009.68 1009.36 1009.08 1008.80 1008.44 1008.08 1007.72 1007.36 1007.04 1006.68 1006.36 1005.96 1005.64 1005.32 1005.04 1004.80 1004.60 1004.44 1004.36 1004.28 1004.20 1004.20 1004.20 1004.16 1004.16 1004.20 1004.20 1004.20 1004.16 1004.08 1004.08 1004.08 1004.08 1004.08 1004.16 1004.20
1017.88 1017.64 1017.36 1017.04 1016.72 1016.44 1016.20 1016.04 1015.84 1015.64 1015.44 1015.24 1015.04 1014.80 1014.52 1014.24 1013.96 1013.72 1013.44 1013.20 1012.92 1012.64 1012.44 1012.20 1012.00 1011.80 1011.52 1011.20 1010.88 1010.60 1010.32 1010.08 1009.84 1009.52 1009.20 1008.84 1008.52 1008.20 1007.80 1007.44 1007.08 1006.68 1006.36 1005.96 1005.64 1005.28 1004.96 1004.68 1004.48 1004.32 1004.20 1004.16 1004.08 1004.08 1004.08 1004.08 1004.08 1004.08 1004.08 1004.08 1004.08 1004.00 1003.92 1003.88 1003.88 1003.88 1003.92 1003.92 1004.00
1017.72 1017.48 1017.20 1016.84 1016.56 1016.32 1016.12 1016.00 1015.80 1015.56 1015.36 1015.12 1014.84 1014.64 1014.36 1014.08 1013.80 1013.52 1013.24 1013.04 1012.80 1012.56 1012.32 1012.08 1011.80 1011.56 1011.28 1011.00 1010.68 1010.36 1010.08 1009.84 1009.64 1009.36 1009.00 1008.64 1008.32 1007.96 1007.60 1007.16 1006.76 1006.40 1006.08 1005.72 1005.40 1005.08 1004.76 1004.52 1004.28 1004.12 1004.04 1004.00 1003.92 1003.92 1003.92 1003.92 1003.96 1003.96 1003.96 1003.92 1003.84 1003.80 1003.76 1003.68 1003.68 1003.68 1003.72 1003.76 1003.80
1017.52 1017.24 1017.00 1016.72 1016.48 1016.28 1016.08 1015.92 1015.76 1015.52 1015.24 1014.96 1014.64 1014.40 1014.16 1013.88 1013.60 1013.36 1013.12 1012.92 1012.76 1012.52 1012.24 1011.92 1011.64 1011.36 1011.08 1010.80 1010.48 1010.16 1009.84 1009.60 1009.36 1009.12 1008.80 1008.44 1008.08 1007.68 1007.32 1006.92 1006.52 1006.20 1005.88 1005.60 1005.28 1004.92 1004.64 1004.36 1004.12 1003.96 1003.84 1003.80 1003.76 1003.76 1003.76 1003.76 1003.80 1003.80 1003.80 1003.72 1003.64 1003.60 1003.52 1003.52 1003.52 1003.52 1003.56 1003.60 1003.60
1017.32 1017.08 1016.84 1016.64 1016.44 1016.24 1016.08 1015.84 1015.64 1015.40 1015.12 1014.84 1014.52 1014.24 1013.96 1013.72 1013.48 1013.24 1013.00 1012.80 1012.64 1012.40 1012.16 1011.80 1011.52 1011.20 1010.92 1010.64 1010.32 1009.96 1009.64 1009.36 1009.08 1008.84 1008.60 1008.20 1007.80 1007.44 1007.08 1006.72 1006.36 1006.08 1005.80 1005.52 1005.20 1004.80 1004.48 1004.20 1004.00 1003.80 1003.68 1003.64 1003.52 1003.52 1003.56 1003.60 1003.60 1003.60 1003.52 1003.52 1003.48 1003.40 1003.36 1003.36 1003.36 1003.40 1003.48 1003.52 1003.52
1017.16 1016.92 1016.76 1016.60 1016.40 1016.24 1016.04 1015.80 1015.52 1015.24 1014.96 1014.68 1014.40 1014.16 1013.88 1013.60 1013.36 1013.12 1012.92 1012.72 1012.52 1012.24 1011.96 1011.64 1011.32 1011.00 1010.72 1010.48 1010.16 1009.84 1009.52 1009.16 1008.84 1008.52 1008.20 1007.92 1007.52 1007.24 1006.88 1006.56 1006.28 1006.00 1005.72 1005.40 1005.08 1004.72 1004.36 1004.08 1003.88 1003.68 1003.52 1003.40 1003.32 1003.28 1003.32 1003.36 1003.36 1003.32 1003.24 1003.20 1003.20 1003.20 1003.20 1003.16 1003.20 1003.24 1003.32 1003.40 1003.44
Wind_Speed
4 4 4 4 4 4 4 4 5 5 4 4 5 5 5 5 5 5 5 5 5 6 6 6 6 7 7 8 9 9 9 9 10 10 11 11 11 10 10 10 10 9 9 10 9 9 8 8 7 6 5 5 6 5 5 5 5 6 6 6 6 6 6 7 7 8 8 8 7
5 5 5 5 5 4 4 4 4 5 5 4 4 5 5 5 5 5 6 5 5 5 6 6 6 7 8 9 9 9 9 10 10 10 11 11 11 10 10 10 10 10 10 10 9 8 8 8 7 6 5 5 5 6 6 5 5 6 7 7 6 5 6 7 7 7 8 7 6
5 5 4 4 4 4 4 4 5 5 5 5 4 4 4 5 5 5 6 6 6 6 6 6 7 7 8 10 9 9 9 10 10 10 10 10 10 10 10 10 10 10 10 10 9 9 8 8 7 7 6 6 6 6 6 6 6 6 7 7 6 6 6 7 7 7 6 6 6
4 4 4 5 5 5 5 5 5 6 6 5 5 5 4 4 5 5 5 6 6 6 6 6 7 8 8 9 9 9 9 10 11 11 11 10 11 11 11 10 10 10 10 10 10 9 9 8 7 6 6 7 7 7 7 6 6 6 6 6 6 6 6 7 7 6 6 6 6
4 4 4 5 6 6 6 5 6 6 6 5 5 5 5 5 5 5 5 6 6 6 7 7 8 8 8 9 10 10 10 10 11 11 10 10 11 11 10 10 10 10 10 10 10 10 9 9 7 6 6 7 6 6 7 7 7 6 6 6 5 6 6 6 6 6 5 6 5
5 5 5 5 6 6 6 5 6 6 6 5 5 6 6 5 6 6 7 7 7 8 8 9 9 9 9 9 9 10 10 10 10 10 10 10 10 10 10 11 10 10 9 9 10 10 9 8 7 6 6 6 7 7 7 7 7 7 6 6 6 6 6 6 6 6 6 7 7
5 5 6 6 6 6 6 6 6 6 5 5 6 7 8 8 8 8 8 8 7 8 8 8 8 9 9 9 9 10 10 9 9 9 10 10 10 10 10 10 10 9 9 9 9 9 8 8 7 7 7 7 7 7 7 7 7 7 7 7 6 6 6 7 6 6 7 9 10
5 5 6 7 7 7 7 7 6 5 5 5 7 8 9 9 9 9 9 8 7 7 7 7 8 9 9 9 10 10 10 10 10 10 9 9 9 9 9 9 9 9 9 8 8 8 8 7 6 7 7 6 7 7 7 8 8 8 8 9 7 6 6 7 6 6 8 10 11
5 6 6 6 6 7 7 7 6 6 6 7 8 8 9 9 9 9 8 8 8 8 7 7 9 9 10 10 11 11 10 10 10 10 9 9 9 9 9 8 8 8 8 8 8 8 8 7 7 7 7 7 7 8 9 9 10 10 10 9 9 8 7 7 7 7 8 10 11
6 6 6 6 7 7 7 7 7 7 7 8 8 9 9 9 9 8 8 7 8 8 8 8 9 10 11 11 11 11 11 10 10 10 10 10 10 10 10 10 9 10 10 9 8 9 8 8 8 8 8 8 9 10 11 11 11 12 11 10 10 10 10 9 9 9 9 10 11
7 6 6 6 7 7 7 7 7 7 7 8 8 8 9 9 9 8 8 8 9 9 9 9 10 11 11 11 11 11 11 11 11 11 11 11 11 11 11 11 11 11 11 10 9 9 8 8 9 9 10 9 10 10 11 11 11 12 12 11 12 12 12 11 11 10 10 10 11
7 7 7 7 7 7 7 7 7 7 7 8 9 8 8 8 8 9 9 9 9 10 10 10 11 11 11 11 11 12 12 12 12 12 12 12 12 12 12 12 12 12 12 11 10 9 9 9 10 11 11 11 9 9 10 11 11 12 12 13 13 13 13 13 12 11 10 11 12
7 7 7 7 8 8 7 8 7 7 8 9 9 8 8 8 9 9 9 10 10 10 10 11 11 11 11 12 12 12 12 12 12 12 12 13 13 13 13 12 12 12 12 12 11 10 10 10 11 12 12 12 11 10 11 12 12 12 13 13 13 13 13 14 13 12 11 11 12
6 7 7 8 8 8 8 8 8 8 8 9 9 9 9 9 9 9 10 10 11 11 11 11 11 11 11 12 12 13 13 13 13 13 13 13 13 13 13 13 13 12 12 11 11 11 11 11 12 12 12 13 12 12 12 12 12 12 13 13 13 13 13 13 13 12 12 12 13
7 7 8 8 7 8 8 8 8 8 8 9 9 9 9 9 10 10 10 10 11 11 11 11 11 12 12 13 13 13 13 13 13 13 14 14 13 13 13 13 13 13 13 12 12 12 12 12 12 12 13 13 13 13 13 13 13 13 13 14 14 14 14 14 13 12 12 12 12
7 7 7 7 7 8 8 8 7 8 8 9 9 9 9 9 9 10 11 11 11 11 11 12 12 12 12 13 13 13 13 13 13 13 13 14 14 14 14 14 14 14 14 14 13 13 13 13 12 12 13 13 14 14 14 14 14 14 14 15 15 15 15 14 13 13 12 12 13
8 8 7 7 8 8 9 8 8 8 9 9 10 10 9 9 9 10 11 12 12 12 12 13 13 12 12 13 13 13 13 13 13 13 13 14 14 14 14 14 14 14 14 14 14 14 14 13 13 13 13 14 14 14 14 14 13 13 14 14 14 14 14 14 14 13 13 13 14
8 8 8 8 9 9 9 9 9 9 9 10 10 10 10 10 10 11 12 12 12 13 14 14 13 13 13 13 13 12 12 13 13 13 13 14 14 15 15 15 15 15 14 15 15 15 15 14 14 14 14 14 14 14 14 13 13 12 13 13 13 13 13 13 13 13 13 13 14
8 8 8 9 9 9 9 10 10 10 10 10 10 10 10 11 11 12 12 12 13 13 14 15 14 13 13 14 13 13 13 13 14 14 14 14 15 15 15 15 15 15 15 15 15 15 15 15 15 15 15 15 15 15 15 14 14 13 12 12 12 12 12 12 12 12 12 13 14
8 9 9 9 9 9 9 9 9 9 10 10 10 11 12 12 12 13 13 13 13 13 14 14 14 14 14 14 14 14 13 12 13 14 15 15 15 15 15 16 16 16 16 16 16 16 16 16 16 16 16 16 16 16 16 16 15 14 14 13 12 12 12 12 12 12 12 13 13
9 9 9 9 9 9 9 9 9 9 10 10 11 12 12 13 13 13 13 14 14 14 14 14 14 14 14 14 14 14 14 13 13 14 15 15 15 16 16 16 16 16 16 16 16 17 17 17 17 17 17 17 17 16 16 15 15 15 14 13 13 13 13 14 14 14 14 14 14
8 8 8 8 8 8 8 9 9 9 10 11 12 12 13 13 13 13 13 13 13 14 14 14 14 14 14 14 15 15 14 13 14 14 14 15 15 15 16 16 16 16 16 16 16 16 17 17 17 17 16 16 16 16 16 15 15 15 14 14 14 14 15 15 15 15 15 15 15
8 7 7 7 8 8 9 9 10 10 11 12 12 13 13 13 13 13 13 13 13 13 14 13 13 14 14 15 15 15 15 15 15 14 14 15 15 16 16 15 16 16 16 15 15 15 15 15 16 16 15 15 15 16 16 16 16 15 15 15 15 15 15 15 16 15 15 15 16
8 8 7 7 7 8 9 10 10 11 12 13 13 13 13 13 13 13 13 13 14 14 14 13 13 14 15 15 15 15 15 15 15 15 15 15 15 16 16 15 15 15 15 14 14 15 16 14 14 13 13 13 14 14 14 15 15 15 15 15 15 15 15 16 16 16 16 16 15
8 8 7 7 8 9 10 10 11 12 13 13 13 13 13 13 13 13 13 14 14 14 15 15 14 14 14 14 15 14 14 15 15 15 15 16 16 16 15 15 14 13 13 14 18 22 23 21 18 15 13 13 13 13 13 14 14 14 15 15 16 16 16 16 16 15 15 15 15
7 7 8 8 9 10 11 11 12 12 13 13 13 13 13 13 13 13 14 14 15 15 15 15 14 14 14 14 14 14 14 14 14 15 16 16 17 16 16 14 13 12 13 15 21 25 27 28 26 23 19 15 14 14 13 13 14 14 15 15 15 15 14 13 13 12 12 13 14
7 7 8 9 10 11 11 12 12 12 13 13 13 13 13 13 13 13 14 15 15 15 14 14 14 14 14 13 14 14 15 14 15 16 16 17 17 17 16 15 14 13 14 18 23 27 28 29 29 28 25 19 16 14 13 13 13 14 14 13 13 13 13 12 12 13 13 12 13
7 8 9 10 11 11 12 12 12 12 13 13 13 13 13 13 14 14 14 15 15 14 14 13 13 12 11 11 13 15 16 16 16 16 16 16 17 17 16 15 14 14 17 22 26 28 29 29 30 29 28 23 17 14 13 13 13 12 12 11 11 11 12 12 12 12 13 13 13
8 9 10 11 12 12 12 12 12 13 13 13 13 13 14 14 14 14 14 15 15 14 13 12 12 11 11 12 14 15 16 16 16 16 16 17 17 17 16 16 15 17 20 25 28 29 29 29 30 30 29 27 19 14 11 11 11 10 10 10 10 10 11 12 12 12 12 13 12
9 10 10 11 12 12 12 12 13 13 13 13 13 13 14 14 14 14 15 15 15 14 13 13 12 13 14 15 15 15 15 15 15 15 16 17 17 17 17 17 16 17 20 25 28 29 29 29 29 29 29 28 23 17 12 11 11 10 10 9 10 11 12 12 13 12 11 10 9
9 10 11 11 12 12 13 13 13 13 13 13 13 14 14 14 14 15 15 15 15 15 15 14 15 15 16 15 15 15 16 16 16 15 16 16 17 18 18 17 18 19 21 26 28 29 29 29 29 29 29 29 23 17 13 11 11 10 8 8 9 9 10 10 10 9 9 8 7
9 10 11 11 12 13 13 13 13 13 13 14 14 14 14 15 15 15 15 15 15 16 16 15 16 16 16 15 15 16 16 16 16 16 16 16 17 18 18 18 18 19 22 26 28 28 29 29 29 29 29 29 24 19 15 12 11 9 8 7 8 8 8 7 7 7 7 8 8
10 10 11 12 12 13 13 13 13 13 13 13 14 14 15 15 15 15 15 15 15 15 15 15 16 16 16 16 16 16 16 17 17 17 18 18 18 18 18 18 17 18 21 26 28 29 29 29 29 29 29 29 24 18 14 12 9 8 6 6 7 7 8 8 7 8 8 9 9
10 11 11 12 13 13 14 14 13 14 14 14 15 15 15 16 16 16 16 15 15 14 14 14 15 15 15 16 16 16 17 16 17 17 17 17 18 18 18 17 15 17 22 27 29 30 30 29 29 29 28 28 21 16 12 10 8 6 6 6 6 7 7 8 8 9 9 9 9
11 11 12 13 13 14 14 14 14 14 15 16 16 15 15 15 16 16 16 16 16 15 14 13 14 14 15 15 16 16 17 18 18 18 18 18 18 18 19 18 17 19 24 28 30 30 30 29 28 28 27 24 17 12 9 8 7 6 6 7 7 8 8 8 8 8 9 9 8
11 12 12 13 14 15 15 15 15 15 16 16 16 16 16 15 15 15 15 16 15 14 14 14 14 15 15 16 16 16 16 17 17 18 18 18 18 18 19 19 19 21 25 28 30 30 29 28 27 26 24 19 12 9 7 6 5 6 6 6 7 8 8 8 8 8 8 8 8
11 12 13 14 15 15 15 15 16 16 17 17 16 16 16 15 15 15 14 15 14 14 14 14 15 16 16 16 16 16 16 16 16 17 18 19 19 19 19 19 19 21 23 27 28 29 28 27 25 24 20 14 10 7 6 5 4 4 5 6 7 8 8 8 7 7 8 8 8
11 12 13 15 15 15 15 15 16 17 17 17 16 15 15 15 14 14 14 14 13 13 14 15 16 16 16 17 16 16 16 16 17 18 18 19 19 19 19 19 19 19 21 24 27 28 27 26 24 22 18 13 9 7 5 4 4 4 5 6 6 7 7 6 6 6 7 8 10
12 13 14 15 15 15 16 16 17 17 17 17 16 16 15 14 13 13 13 14 13 14 15 16 16 16 16 17 16 16 17 17 17 18 18 19 19 20 20 20 19 19 20 23 26 27 26 24 23 21 18 14 9 6 4 4 4 5 6 6 6 6 6 6 5 5 6 8 12
12 13 14 15 15 16 16 17 17 17 16 16 16 16 15 14 14 14 14 14 14 14 14 15 16 16 16 17 16 16 17 17 17 17 18 19 20 21 22 21 19 18 19 22 24 25 25 23 22 21 18 13 8 5 4 4 5 6 7 7 6 5 5 5 4 4 5 6 10
13 14 14 15 15 16 16 17 17 17 16 16 16 15 14 14 14 14 14 14 14 14 14 13 14 15 16 17 15 15 16 17 17 18 18 19 20 21 21 19 18 17 17 18 22 24 24 23 21 20 18 13 8 5 4 4 5 7 9 8 7 5 5 5 4 4 5 6 7
Wind_Direction
271 269 268 269 272 274 276 279 282 283 284 287 290 293 294 295 295 294 293 293 292 291 292 292 292 293 293 292 290 289 288 286 284 282 281 281 280 279 278 277 275 274 273 272 271 272 272 270 269 269 270 269 269 268 266 266 266 267 268 267 269 270 269 268 268 265 262 258 255
275 272 270 273 278 281 284 288 289 289 290 288 289 290 291 292 292 293 292 291 289 290 291 292 292 292 292 291 289 288 287 287 285 285 284 283 281 279 277 276 274 272 270 270 269 269 269 267 266 267 269 269 268 268 268 267 267 269 271 269 269 271 271 270 267 263 260 257 253
276 277 277 278 281 285 289 292 291 290 290 289 287 287 287 287 289 290 290 290 289 290 290 292 293 292 292 292 291 289 287 288 288 288 287 285 283 280 278 276 274 272 270 270 268 267 266 265 266 267 268 269 268 269 270 270 269 270 270 269 269 270 271 272 270 267 265 264 258
275 276 278 279 279 279 280 286 289 290 289 290 289 287 286 285 286 288 288 290 291 291 291 292 294 295 294 294 292 291 290 290 291 290 289 287 285 282 279 277 275 273 271 269 268 267 265 263 264 265 266 267 267 268 269 270 268 267 268 268 269 270 270 272 272 272 271 271 266
278 274 274 276 277 277 277 278 283 285 287 290 293 293 292 290 290 291 293 295 296 295 294 293 293 294 294 294 294 294 294 293 293 292 290 289 286 283 280 277 275 273 271 270 267 266 265 263 264 265 265 266 265 266 266 267 267 268 267 269 268 268 267 268 269 269 269 269 268
284 283 281 280 279 279 279 280 279 281 284 291 293 294 294 295 296 297 297 296 295 294 293 292 293 294 295 297 297 297 297 296 294 292 290 288 286 284 281 278 274 273 271 270 268 267 266 264 266 267 267 267 268 267 267 266 267 268 268 267 265 265 265 265 265 266 266 266 265
282 284 285 285 283 283 283 283 283 284 287 290 292 291 292 293 295 294 293 292 293 294 294 295 296 298 299 300 299 298 297 296 293 290 288 287 285 282 280 277 275 273 271 270 268 267 266 263 266 269 270 271 273 271 269 266 265 265 265 265 263 263 263 263 264 265 266 265 264
280 280 281 283 283 283 283 283 286 289 291 293 292 290 290 291 291 291 292 293 294 295 296 298 298 297 297 297 297 296 295 294 293 291 289 286 284 282 279 277 275 273 270 267 266 265 264 262 264 268 270 272 273 272 269 265 263 262 263 264 265 265 263 263 263 263 263 263 263
287 285 284 284 284 283 282 282 284 286 288 289 288 287 288 289 290 291 294 295 295 296 297 298 297 296 295 295 294 294 294 293 293 291 290 288 287 286 284 282 281 278 275 272 269 267 266 266 268 269 269 271 272 273 272 269 267 266 266 267 267 266 263 261 260 259 260 260 261
292 292 292 291 288 286 285 286 286 285 285 286 286 286 287 290 292 293 294 294 296 297 297 296 296 296 295 294 294 293 293 292 292 292 292 291 290 290 290 290 288 287 285 283 280 277 275 273 272 271 271 271 272 273 273 272 270 269 269 269 270 269 267 264 261 260 259 260 260
290 291 291 291 290 290 292 293 293 292 290 290 290 290 291 293 294 293 293 294 297 296 295 294 295 295 295 295 294 294 293 293 293 293 293 292 292 291 291 290 289 288 287 285 284 282 279 277 275 273 271 270 270 271 272 271 269 268 268 268 269 270 269 267 265 263 262 261 260
290 291 290 290 291 294 296 297 297 296 296 294 294 295 294 295 293 293 295 296 296 295 295 295 296 296 296 295 295 295 295 294 294 293 292 292 291 290 289 288 287 285 285 283 282 281 279 277 276 275 273 271 271 271 270 269 268 267 267 267 267 267 268 268 266 264 263 262 262
291 293 293 294 295 297 298 298 299 299 298 297 297 297 297 297 296 297 298 298 297 297 297 298 297 296 296 296 296 296 296 295 294 293 292 291 290 290 288 287 286 285 283 282 281 280 278 276 275 275 274 273 272 270 270 269 268 267 267 267 266 266 266 267 266 264 263 262 261
293 294 295 296 298 300 301 300 300 300 299 298 298 298 299 299 300 301 301 300 299 299 299 299 298 297 297 297 297 296 295 295 294 292 291 290 289 288 287 286 284 283 283 282 280 278 276 275 274 274 274 273 272 271 270 268 268 266 266 265 265 265 265 264 263 262 260 258 258
295 295 295 297 299 300 301 301 300 300 300 299 299 300 301 301 302 303 302 301 300 299 299 300 299 298 298 297 297 296 296 294 293 292 290 289 288 287 286 285 284 283 282 281 280 278 276 275 274 273 272 272 271 271 270 269 268 266 265 264 265 265 264 263 262 261 259 257 257
297 297 298 299 300 301 300 300 300 300 300 300 301 302 302 303 303 304 303 302 302 301 301 301 300 300 300 299 298 297 296 294 292 291 290 289 287 286 285 284 283 283 282 281 280 279 277 275 273 272 271 271 271 271 271 270 268 267 266 265 265 265 265 264 263 262 261 260 260
299 299 299 300 300 299 298 298 298 299 300 300 301 302 302 303 304 304 304 304 303 303 302 301 301 301 300 300 298 297 296 294 292 290 289 288 287 287 285 284 283 283 282 281 280 279 277 274 272 270 269 269 270 270 269 268 266 264 263 262 261 261 261 261 260 260 260 260 260
300 299 300 300 299 298 298 297 298 299 299 300 301 302 303 304 304 304 304 303 303 303 302 302 301 301 300 299 298 297 295 293 292 290 289 288 287 286 285 284 283 282 281 280 279 278 276 274 272 270 269 269 269 269 268 267 265 262 259 258 256 255 255 254 254 254 255 256 257
300 300 301 300 299 299 299 299 299 300 300 301 302 303 303 304 303 303 303 303 303 303 302 302 302 300 299 297 296 295 294 292 291 290 289 287 287 286 285 284 284 282 281 280 278 277 275 274 273 272 272 272 272 272 272 271 270 266 262 259 256 254 252 250 249 249 249 250 252
300 300 300 300 300 300 300 300 301 301 302 303 303 303 303 303 303 303 304 304 304 303 303 301 301 300 298 297 295 294 293 291 291 290 289 288 287 286 286 285 284 283 282 280 279 278 277 276 276 275 275 275 275 275 275 274 273 272 269 266 262 258 254 252 250 249 248 248 249
299 299 300 301 301 301 300 300 302 302 303 303 303 303 303 303 304 304 304 304 304 304 302 300 299 298 297 296 295 294 292 291 290 289 288 288 287 286 286 286 286 285 284 282 281 280 279 278 278 277 276 276 275 274 273 272 270 269 267 265 262 260 257 255 254 252 251 250 250
299 300 301 302 301 301 302 303 304 304 304 303 303 303 304 305 305 305 305 304 304 303 301 299 297 296 296 295 294 293 291 290 288 287 287 287 287 287 287 287 287 286 285 283 282 281 280 278 277 275 274 272 270 268 266 265 263 262 260 258 257 256 255 254 253 252 251 250 249
301 302 303 303 303 304 305 305 305 305 304 304 305 305 306 306 306 305 305 304 303 301 299 298 297 296 295 294 292 291 290 289 287 286 286 286 287 288 288 288 288 287 286 284 282 281 279 277 275 273 270 267 265 263 261 260 259 258 257 255 253 252 251 250 250 250 249 249 248
303 304 305 306 306 306 306 306 306 306 306 306 307 307 307 307 306 306 304 303 301 300 299 297 296 295 294 292 290 289 288 288 288 288 288 289 289 290 290 290 289 287 286 284 282 281 279 277 275 272 268 265 262 260 258 255 255 254 253 252 251 250 248 247 246 245 245 246 247
304 305 306 306 307 306 306 307 307 307 307 307 307 307 307 306 306 305 303 302 301 299 298 297 296 294 293 291 290 288 288 289 291 292 293 293 292 292 292 291 289 288 285 283 282 282 282 282 280 277 273 268 264 261 258 255 253 251 249 248 248 248 247 245 243 242 242 243 244
306 306 306 306 306 307 307 307 307 307 307 307 308 307 306 305 304 303 302 301 300 299 298 297 295 294 293 292 292 292 293 293 294 295 295 295 294 293 291 290 289 287 285 284 285 285 285 285 284 282 279 274 270 267 264 260 255 252 249 247 246 245 245 244 244 243 242 243 242
307 307 307 307 308 308 308 308 308 308 308 308 307 306 304 304 303 302 302 300 299 299 298 296 295 294 295 295 296 297 297 297 297 296 295 294 293 292 290 289 288 286 285 285 286 286 286 287 286 285 283 280 276 272 269 266 261 257 253 249 245 243 243 246 251 254 253 250 244
307 307 308 310 310 309 309 309 309 308 307 307 305 304 303 302 302 301 300 300 299 299 298 297 296 297 298 299 299 299 298 297 296 295 294 293 291 290 289 288 286 285 284 286 287 288 289 289 288 288 287 285 281 276 272 269 266 262 257 252 248 245 244 247 252 255 255 252 245
306 308 310 311 311 310 310 310 309 307 306 305 303 303 302 302 302 301 300 300 300 300 300 300 301 301 301 300 299 298 297 296 295 294 293 292 291 289 288 287 285 284 285 287 289 289 290 290 289 289 288 287 284 280 274 269 265 262 259 255 249 244 243 244 247 248 248 245 239
308 310 311 311 310 310 309 308 307 305 304 303 303 302 302 302 302 302 302 301 301 300 301 302 302 301 300 298 298 297 296 295 294 293 293 292 291 290 289 288 286 285 286 288 289 290 290 289 289 289 289 289 285 281 274 268 265 262 259 256 249 244 242 243 245 244 242 236 229
310 311 311 310 309 308 308 306 305 304 303 302 302 302 303 303 303 303 303 303 302 302 302 302 300 298 297 296 296 296 295 295 294 293 292 291 291 291 290 289 286 286 287 288 289 289 289 289 290 291 291 290 287 283 275 270 267 264 260 256 251 249 248 249 247 242 235 226 220
311 311 311 310 308 307 306 305 304 303 302 302 302 304 304 305 304 304 304 304 304 304 303 302 300 299 298 297 297 296 296 296 295 294 293 293 293 292 291 289 287 287 287 289 289 290 290 290 291 292 292 291 288 284 278 273 270 266 262 257 254 253 253 253 249 240 229 220 216
312 311 310 308 307 305 304 304 303 303 303 304 305 306 307 307 306 306 306 305 305 304 303 302 301 301 301 300 299 298 298 297 296 295 295 295 294 293 291 289 288 287 289 290 291 291 291 292 292 293 292 292 289 285 280 275 271 267 263 257 253 252 251 249 244 237 228 219 216
312 311 309 307 306 304 304 303 304 305 307 308 309 309 309 308 308 307 306 306 304 303 302 301 301 301 300 300 299 299 298 298 298 298 297 296 295 293 291 290 288 289 290 292 292 292 293 293 293 293 293 291 288 285 279 274 269 264 259 255 254 252 249 244 238 233 226 218 214
312 310 308 306 305 305 305 307 308 310 311 312 311 310 309 307 306 305 305 304 303 302 301 301 301 300 299 299 298 298 298 299 299 299 298 297 296 294 292 291 289 290 291 293 294 294 294 294 294 293 293 292 289 286 281 275 268 260 254 251 251 251 248 241 234 227 220 214 212
310 308 307 305 305 306 308 311 313 314 314 313 311 309 308 306 304 303 303 303 303 303 302 302 303 302 301 300 299 298 298 298 298 299 299 298 297 296 295 294 291 291 293 295 296 297 298 298 297 297 296 295 292 290 285 278 270 260 252 249 250 250 247 241 232 223 216 212 210
308 306 304 305 307 309 312 315 315 315 313 311 310 308 306 304 303 302 303 305 305 305 304 304 304 303 301 301 299 299 298 298 299 299 299 300 299 298 296 295 293 293 295 298 301 303 305 305 304 303 301 299 296 293 288 280 272 262 254 252 252 250 247 242 232 222 215 211 210
305 304 304 307 310 313 315 316 315 313 311 309 307 305 304 303 303 303 305 308 308 307 306 305 303 301 301 301 300 299 299 299 299 300 300 300 299 297 296 295 295 296 299 304 308 310 311 311 309 307 304 299 295 290 283 275 268 261 256 255 255 252 249 244 232 223 217 215 218
304 305 308 311 314 316 316 316 313 311 309 307 306 305 304 304 304 306 308 310 309 306 304 302 300 299 300 301 301 301 301 300 300 299 299 298 297 297 298 298 299 300 304 308 313 315 316 315 311 307 303 296 291 283 272 264 259 256 255 255 256 254 248 240 230 221 218 220 225
306 309 313 315 317 317 315 313 310 308 306 305 305 304 304 305 306 308 309 309 306 303 300 298 297 298 299 302 302 302 301 300 299 298 297 297 297 298 300 300 300 302 305 310 316 319 319 317 312 307 302 295 287 274 258 250 251 251 251 251 251 247 241 228 219 214 217 224 231
310 315 317 318 318 316 313 310 307 306 304 303 303 304 305 307 308 309 308 306 303 301 298 296 297 298 300 303 303 302 301 300 298 297 297 297 298 299 300 300 300 301 305 312 318 321 322 320 315 310 305 297 288 270 249 241 245 246 245 242 239 235 229 218 210 209 214 220 229